Time,TemperatureF,DewpointF,PressureIn,WindDirection,WindDirectionDegrees,WindSpeedMPH,WindSpeedGustMPH,Humidity,HourlyPrecipIn,Conditions,Clouds,dailyrainin,SoftwareType,DateUTC
2013-03-30 00:00:00,41.7,21.2,30.23,NW,315,0.0,0.0,44,0.00,,,0.00,WUHU216HW,2013-03-30 04:00:00,
2013-03-30 00:05:00,41.7,21.2,30.23,NW,315,0.0,0.0,44,0.00,,,0.00,WUHU216HW,2013-03-30 04:05:00,
2013-03-30 00:10:00,41.5,21.0,30.23,NW,315,0.0,0.0,44,0.00,,,0.00,WUHU216HW,2013-03-30 04:10:00,
2013-03-30 00:15:00,41.3,20.9,30.23,NW,315,0.0,0.0,44,0.00,,,0.00,WUHU216HW,2013-03-30 04:15:00,
2013-03-30 00:20:00,41.1,20.7,30.23,NW,315,0.0,0.0,44,0.00,,,0.00,WUHU216HW,2013-03-30 04:20:00,
2013-03-30 00:25:00,41.0,20.5,30.22,NW,315,0.0,0.0,44,0.00,,,0.00,WUHU216HW,2013-03-30 04:25:00,
2013-03-30 00:30:00,40.6,20.2,30.22,NW,315,0.0,0.0,44,0.00,,,0.00,WUHU216HW,2013-03-30 04:30:00,
2013-03-30 00:35:00,40.4,20.1,30.22,NW,315,0.0,0.0,44,0.00,,,0.00,WUHU216HW,2013-03-30 04:35:00,
2013-03-30 00:40:00,40.2,19.7,30.22,NW,315,0.0,0.0,44,0.00,,,0.00,WUHU216HW,2013-03-30 04:40:00,
2013-03-30 00:45:00,40.1,19.7,30.22,NW,315,0.0,0.0,44,0.00,,,0.00,WUHU216HW,2013-03-30 04:45:00,
2013-03-30 00:50:00,39.9,20.1,30.22,NW,315,0.0,0.0,45,0.00,,,0.00,WUHU216HW,2013-03-30 04:50:00,
2013-03-30 00:55:00,39.9,20.1,30.22,NW,315,0.0,0.0,45,0.00,,,0.00,WUHU216HW,2013-03-30 04:55:00,
2013-03-30 01:00:00,39.7,19.9,30.22,NW,315,0.0,0.0,45,0.00,,,0.00,WUHU216HW,2013-03-30 05:00:00,
2013-03-30 01:09:00,39.7,19.9,30.22,NW,315,0.0,0.0,45,0.00,,,0.00,WUHU216HW,2013-03-30 05:09:00,
2013-03-30 01:14:00,39.3,19.6,30.22,NW,315,0.0,0.0,45,0.00,,,0.00,WUHU216HW,2013-03-30 05:14:00,
2013-03-30 01:19:00,39.3,19.6,30.22,NW,315,0.0,0.0,45,0.00,,,0.00,WUHU216HW,2013-03-30 05:19:00,
2013-03-30 01:24:00,39.0,19.8,30.22,NW,315,0.0,0.0,46,0.00,,,0.00,WUHU216HW,2013-03-30 05:24:00,
2013-03-30 01:29:00,38.8,19.8,30.22,NW,315,0.0,0.0,46,0.00,,,0.00,WUHU216HW,2013-03-30 05:29:00,
2013-03-30 01:34:00,38.8,19.6,30.22,NW,315,0.0,0.0,46,0.00,,,0.00,WUHU216HW,2013-03-30 05:34:00,
2013-03-30 01:39:00,38.6,19.5,30.22,NW,315,0.0,0.0,46,0.00,,,0.00,WUHU216HW,2013-03-30 05:39:00,
2013-03-30 01:44:00,38.6,19.5,30.22,NW,315,0.0,0.0,46,0.00,,,0.00,WUHU216HW,2013-03-30 05:44:00,
2013-03-30 01:49:00,38.4,19.3,30.22,NW,315,0.0,0.0,46,0.00,,,0.00,WUHU216HW,2013-03-30 05:49:00,
2013-03-30 01:54:00,38.3,19.7,30.22,NW,315,0.0,0.0,47,0.00,,,0.00,WUHU216HW,2013-03-30 05:54:00,
2013-03-30 01:59:00,38.3,19.7,30.22,NW,315,0.0,0.0,47,0.00,,,0.00,WUHU216HW,2013-03-30 05:59:00,
2013-03-30 02:04:00,38.3,19.7,30.22,NW,315,0.0,0.0,47,0.00,,,0.00,WUHU216HW,2013-03-30 06:04:00,
2013-03-30 02:09:00,38.3,19.7,30.22,NW,315,0.0,0.0,47,0.00,,,0.00,WUHU216HW,2013-03-30 06:09:00,
2013-03-30 02:14:00,38.3,19.7,30.22,NW,315,0.0,0.0,47,0.00,,,0.00,WUHU216HW,2013-03-30 06:14:00,
2013-03-30 02:19:00,38.3,19.7,30.22,NW,315,0.0,0.0,47,0.00,,,0.00,WUHU216HW,2013-03-30 06:19:00,
2013-03-30 02:24:00,38.1,19.5,30.22,NW,315,0.0,0.0,47,0.00,,,0.00,WUHU216HW,2013-03-30 06:24:00,
2013-03-30 02:29:00,38.1,19.5,30.22,NW,315,0.0,0.0,47,0.00,,,0.00,WUHU216HW,2013-03-30 06:29:00,
2013-03-30 02:34:00,37.9,19.4,30.22,NW,315,0.0,0.0,47,0.00,,,0.00,WUHU216HW,2013-03-30 06:34:00,
2013-03-30 02:39:00,37.9,19.4,30.22,NW,315,0.0,0.0,47,0.00,,,0.00,WUHU216HW,2013-03-30 06:39:00,
2013-03-30 02:44:00,37.7,19.2,30.22,NW,315,0.0,0.0,47,0.00,,,0.00,WUHU216HW,2013-03-30 06:44:00,
2013-03-30 02:49:00,37.5,18.5,30.22,NW,315,0.0,0.0,46,0.00,,,0.00,WUHU216HW,2013-03-30 06:49:00,
2013-03-30 02:54:00,37.5,19.0,30.22,NW,315,0.0,0.0,47,0.00,,,0.00,WUHU216HW,2013-03-30 06:54:00,
2013-03-30 02:59:00,37.5,19.0,30.22,NW,315,0.0,0.0,47,0.00,,,0.00,WUHU216HW,2013-03-30 06:59:00,
2013-03-30 03:04:00,37.2,18.7,30.22,NW,315,0.0,0.0,47,0.00,,,0.00,WUHU216HW,2013-03-30 07:04:00,
2013-03-30 03:09:00,37.2,18.7,30.22,NW,315,0.0,0.0,47,0.00,,,0.00,WUHU216HW,2013-03-30 07:09:00,
2013-03-30 03:14:00,37.0,18.5,30.22,NW,315,0.0,0.0,47,0.00,,,0.00,WUHU216HW,2013-03-30 07:14:00,
2013-03-30 03:19:00,36.8,18.4,30.22,NW,315,0.0,0.0,47,0.00,,,0.00,WUHU216HW,2013-03-30 07:19:00,
2013-03-30 03:24:00,36.6,18.2,30.22,NW,315,0.0,0.0,47,0.00,,,0.00,WUHU216HW,2013-03-30 07:24:00,
2013-03-30 03:29:00,36.5,18.1,30.22,NW,315,0.0,0.0,47,0.00,,,0.00,WUHU216HW,2013-03-30 07:29:00,
2013-03-30 03:34:00,36.3,17.9,30.22,NW,315,0.0,0.0,47,0.00,,,0.00,WUHU216HW,2013-03-30 07:34:00,
2013-03-30 03:39:00,36.1,17.7,30.22,NW,315,0.0,0.0,47,0.00,,,0.00,WUHU216HW,2013-03-30 07:39:00,
2013-03-30 03:44:00,36.1,17.7,30.22,NW,315,0.0,0.0,47,0.00,,,0.00,WUHU216HW,2013-03-30 07:44:00,
2013-03-30 03:49:00,35.7,17.4,30.22,NW,315,0.0,0.0,47,0.00,,,0.00,WUHU216HW,2013-03-30 07:49:00,
2013-03-30 03:54:00,35.6,17.2,30.22,NW,315,0.0,0.0,47,0.00,,,0.00,WUHU216HW,2013-03-30 07:54:00,
2013-03-30 03:59:00,35.2,16.9,30.22,NW,315,0.0,0.0,47,0.00,,,0.00,WUHU216HW,2013-03-30 07:59:00,
2013-03-30 04:04:00,34.8,16.5,30.22,NW,315,0.0,0.0,47,0.00,,,0.00,WUHU216HW,2013-03-30 08:04:00,
2013-03-30 04:09:00,34.7,16.4,30.22,NW,315,0.0,0.0,47,0.00,,,0.00,WUHU216HW,2013-03-30 08:09:00,
2013-03-30 04:14:00,34.5,16.7,30.21,NW,315,0.0,0.0,48,0.00,,,0.00,WUHU216HW,2013-03-30 08:14:00,
2013-03-30 04:19:00,34.3,16.5,30.21,NW,315,0.0,0.0,48,0.00,,,0.00,WUHU216HW,2013-03-30 08:19:00,
2013-03-30 04:24:00,34.3,16.5,30.22,NW,315,0.0,0.0,48,0.00,,,0.00,WUHU216HW,2013-03-30 08:24:00,
2013-03-30 04:29:00,34.1,16.8,30.22,NW,315,0.0,0.0,49,0.00,,,0.00,WUHU216HW,2013-03-30 08:29:00,
2013-03-30 04:34:00,34.1,16.8,30.22,NW,315,0.0,0.0,49,0.00,,,0.00,WUHU216HW,2013-03-30 08:34:00,
2013-03-30 04:39:00,34.1,17.4,30.22,NW,315,0.0,0.0,50,0.00,,,0.00,WUHU216HW,2013-03-30 08:39:00,
2013-03-30 04:44:00,34.1,17.8,30.22,NW,315,0.0,0.0,51,0.00,,,0.00,WUHU216HW,2013-03-30 08:44:00,
2013-03-30 04:49:00,33.9,17.6,30.22,NW,315,0.0,0.0,51,0.00,,,0.00,WUHU216HW,2013-03-30 08:49:00,
2013-03-30 04:54:00,33.9,18.1,30.22,NW,315,0.0,0.0,52,0.00,,,0.00,WUHU216HW,2013-03-30 08:54:00,
2013-03-30 04:59:00,33.9,18.1,30.22,NW,315,0.0,0.0,52,0.00,,,0.00,WUHU216HW,2013-03-30 08:59:00,
2013-03-30 05:04:00,33.9,18.5,30.22,NW,315,0.0,0.0,53,0.00,,,0.00,WUHU216HW,2013-03-30 09:04:00,
2013-03-30 05:09:00,33.9,18.5,30.22,NW,315,0.0,0.0,53,0.00,,,0.00,WUHU216HW,2013-03-30 09:09:00,
2013-03-30 05:14:00,33.8,18.7,30.22,NW,315,0.0,0.0,54,0.00,,,0.00,WUHU216HW,2013-03-30 09:14:00,
2013-03-30 05:19:00,33.8,18.7,30.22,NW,315,0.0,0.0,54,0.00,,,0.00,WUHU216HW,2013-03-30 09:19:00,
2013-03-30 05:24:00,33.6,19.0,30.22,NW,315,0.0,0.0,55,0.00,,,0.00,WUHU216HW,2013-03-30 09:24:00,
2013-03-30 05:29:00,33.6,18.8,30.21,NW,315,0.0,0.0,55,0.00,,,0.00,WUHU216HW,2013-03-30 09:29:00,
2013-03-30 05:34:00,33.4,18.8,30.22,NW,315,0.0,0.0,55,0.00,,,0.00,WUHU216HW,2013-03-30 09:34:00,
2013-03-30 05:39:00,33.4,19.3,30.22,NW,315,0.0,0.0,56,0.00,,,0.00,WUHU216HW,2013-03-30 09:39:00,
2013-03-30 05:44:00,33.4,19.3,30.22,NW,315,0.0,0.0,56,0.00,,,0.00,WUHU216HW,2013-03-30 09:44:00,
2013-03-30 05:49:00,33.2,19.1,30.22,NW,315,0.0,0.0,56,0.00,,,0.00,WUHU216HW,2013-03-30 09:49:00,
2013-03-30 05:54:00,33.2,19.7,30.22,NW,315,0.0,0.0,57,0.00,,,0.00,WUHU216HW,2013-03-30 09:54:00,
2013-03-30 05:59:00,33.2,19.5,30.21,NW,315,0.0,0.0,57,0.00,,,0.00,WUHU216HW,2013-03-30 09:59:00,
2013-03-30 06:04:00,33.2,19.5,30.22,NW,315,0.0,0.0,57,0.00,,,0.00,WUHU216HW,2013-03-30 10:04:00,
2013-03-30 06:09:00,33.2,19.5,30.21,NW,315,0.0,0.0,57,0.00,,,0.00,WUHU216HW,2013-03-30 10:09:00,
2013-03-30 06:14:00,33.2,20.0,30.21,NW,315,0.0,0.0,58,0.00,,,0.00,WUHU216HW,2013-03-30 10:14:00,
2013-03-30 06:19:00,32.9,19.7,30.21,NW,315,0.0,0.0,58,0.00,,,0.00,WUHU216HW,2013-03-30 10:19:00,
2013-03-30 06:24:00,32.9,19.7,30.22,NW,315,0.0,0.0,58,0.00,,,0.00,WUHU216HW,2013-03-30 10:24:00,
2013-03-30 06:29:00,32.9,19.7,30.22,NW,315,0.0,0.0,58,0.00,,,0.00,WUHU216HW,2013-03-30 10:29:00,
2013-03-30 06:34:00,32.7,19.5,30.22,NW,315,0.0,0.0,58,0.00,,,0.00,WUHU216HW,2013-03-30 10:34:00,
2013-03-30 06:39:00,32.7,19.5,30.22,NW,315,0.0,0.0,58,0.00,,,0.00,WUHU216HW,2013-03-30 10:39:00,
2013-03-30 06:44:00,32.5,19.3,30.22,NW,315,0.0,0.0,58,0.00,,,0.00,WUHU216HW,2013-03-30 10:44:00,
2013-03-30 06:49:00,32.5,19.3,30.22,NW,315,0.0,0.0,58,0.00,,,0.00,WUHU216HW,2013-03-30 10:49:00,
2013-03-30 06:54:00,32.5,19.8,30.22,NW,315,0.0,0.0,59,0.00,,,0.00,WUHU216HW,2013-03-30 10:54:00,
2013-03-30 06:59:00,32.3,19.6,30.22,NW,315,0.0,0.0,59,0.00,,,0.00,WUHU216HW,2013-03-30 10:59:00,
2013-03-30 07:10:00,32.3,19.4,30.22,NW,315,0.0,0.0,59,0.00,,,0.00,WUHU216HW,2013-03-30 11:10:00,
2013-03-30 07:15:00,32.1,19.4,30.23,NW,315,0.0,0.0,59,0.00,,,0.00,WUHU216HW,2013-03-30 11:15:00,
2013-03-30 07:20:00,32.1,19.9,30.23,NW,315,0.0,0.0,60,0.00,,,0.00,WUHU216HW,2013-03-30 11:20:00,
2013-03-30 07:25:00,32.1,19.9,30.23,NW,315,0.0,0.0,60,0.00,,,0.00,WUHU216HW,2013-03-30 11:25:00,
2013-03-30 07:30:00,32.1,19.9,30.23,NW,315,0.0,0.0,60,0.00,,,0.00,WUHU216HW,2013-03-30 11:30:00,
2013-03-30 07:35:00,32.1,19.9,30.24,SW,225,0.0,0.0,60,0.00,,,0.00,WUHU216HW,2013-03-30 11:35:00,
2013-03-30 07:40:00,32.3,20.0,30.24,SW,225,0.0,0.0,60,0.00,,,0.00,WUHU216HW,2013-03-30 11:40:00,
2013-03-30 07:45:00,32.3,20.0,30.25,SW,225,0.0,0.0,60,0.00,,,0.00,WUHU216HW,2013-03-30 11:45:00,
2013-03-30 07:50:00,32.3,20.4,30.24,SW,225,0.0,0.0,61,0.00,,,0.00,WUHU216HW,2013-03-30 11:50:00,
2013-03-30 07:55:00,32.3,20.4,30.24,SW,225,0.0,0.0,61,0.00,,,0.00,WUHU216HW,2013-03-30 11:55:00,
2013-03-30 08:00:00,32.3,20.4,30.25,SW,225,0.0,0.0,61,0.00,,,0.00,WUHU216HW,2013-03-30 12:00:00,
2013-03-30 08:05:00,32.3,20.4,30.25,SW,225,0.0,0.0,61,0.00,,,0.00,WUHU216HW,2013-03-30 12:05:00,
2013-03-30 08:10:00,32.5,20.6,30.25,SW,225,0.0,0.0,61,0.00,,,0.00,WUHU216HW,2013-03-30 12:10:00,
2013-03-30 08:15:00,32.7,20.7,30.25,SW,225,0.0,0.0,61,0.00,,,0.00,WUHU216HW,2013-03-30 12:15:00,
2013-03-30 08:20:00,32.9,21.1,30.25,SW,225,0.0,0.0,62,0.00,,,0.00,WUHU216HW,2013-03-30 12:20:00,
2013-03-30 08:25:00,32.9,21.2,30.25,SW,225,0.0,0.0,62,0.00,,,0.00,WUHU216HW,2013-03-30 12:25:00,
2013-03-30 08:30:00,33.0,21.4,30.25,SW,225,0.0,0.0,62,0.00,,,0.00,WUHU216HW,2013-03-30 12:30:00,
2013-03-30 08:35:00,33.4,21.7,30.26,SW,225,0.0,0.0,62,0.00,,,0.00,WUHU216HW,2013-03-30 12:35:00,
2013-03-30 08:40:00,33.6,22.2,30.26,SW,225,0.0,0.0,63,0.00,,,0.00,WUHU216HW,2013-03-30 12:40:00,
2013-03-30 08:45:00,33.9,22.6,30.26,SW,225,0.0,0.0,63,0.00,,,0.00,WUHU216HW,2013-03-30 12:45:00,
2013-03-30 08:50:00,34.1,22.8,30.26,SSW,203,0.0,0.0,63,0.00,,,0.00,WUHU216HW,2013-03-30 12:50:00,
2013-03-30 08:55:00,34.7,23.3,30.25,SSW,203,0.0,0.0,63,0.00,,,0.00,WUHU216HW,2013-03-30 12:55:00,
2013-03-30 09:00:00,35.2,24.2,30.25,SSW,203,0.0,0.0,64,0.00,,,0.00,WUHU216HW,2013-03-30 13:00:00,
2013-03-30 09:05:00,35.7,24.5,30.26,SSW,203,0.0,0.0,63,0.00,,,0.00,WUHU216HW,2013-03-30 13:05:00,
2013-03-30 09:10:00,36.1,24.7,30.25,SSW,203,0.0,0.0,63,0.00,,,0.00,WUHU216HW,2013-03-30 13:10:00,
2013-03-30 09:15:00,36.6,25.0,30.25,SSW,203,0.0,0.0,63,0.00,,,0.00,WUHU216HW,2013-03-30 13:15:00,
2013-03-30 09:20:00,37.0,25.2,30.25,SSW,203,0.0,0.0,62,0.00,,,0.00,WUHU216HW,2013-03-30 13:20:00,
2013-03-30 09:25:00,37.7,25.8,30.25,SSW,203,0.0,0.0,62,0.00,,,0.00,WUHU216HW,2013-03-30 13:25:00,
2013-03-30 09:30:00,38.1,26.2,30.25,SSW,203,0.0,0.0,62,0.00,,,0.00,WUHU216HW,2013-03-30 13:30:00,
2013-03-30 09:35:00,38.6,26.6,30.25,SSW,203,0.0,0.0,62,0.00,,,0.00,WUHU216HW,2013-03-30 13:35:00,
2013-03-30 09:40:00,39.2,27.1,30.25,SSW,203,0.0,0.0,62,0.00,,,0.00,WUHU216HW,2013-03-30 13:40:00,
2013-03-30 09:45:00,39.7,27.3,30.25,SSE,158,0.0,0.0,61,0.00,,,0.00,WUHU216HW,2013-03-30 13:45:00,
2013-03-30 09:50:00,40.4,28.0,30.24,South,180,0.0,0.0,61,0.00,,,0.00,WUHU216HW,2013-03-30 13:50:00,
2013-03-30 09:55:00,41.1,28.3,30.24,SSW,203,0.0,0.0,60,0.00,,,0.00,WUHU216HW,2013-03-30 13:55:00,
2013-03-30 10:00:00,41.9,28.5,30.24,South,180,0.0,0.0,59,0.00,,,0.00,WUHU216HW,2013-03-30 14:00:00,
2013-03-30 10:05:00,42.6,27.7,30.23,SW,225,0.0,0.0,56,0.00,,,0.00,WUHU216HW,2013-03-30 14:05:00,
2013-03-30 10:10:00,43.3,28.1,30.24,SSW,203,0.0,0.0,55,0.00,,,0.00,WUHU216HW,2013-03-30 14:10:00,
2013-03-30 10:15:00,44.0,27.9,30.24,SW,225,0.0,4.0,53,0.00,,,0.00,WUHU216HW,2013-03-30 14:15:00,
2013-03-30 10:20:00,44.7,28.6,30.23,SSE,158,0.0,4.0,53,0.00,,,0.00,WUHU216HW,2013-03-30 14:20:00,
2013-03-30 10:25:00,45.1,28.5,30.23,SSE,158,0.0,0.0,52,0.00,,,0.00,WUHU216HW,2013-03-30 14:25:00,
2013-03-30 10:30:00,45.8,28.7,30.23,SW,225,0.0,0.8,51,0.00,,,0.00,WUHU216HW,2013-03-30 14:30:00,
2013-03-30 10:35:00,46.5,28.9,30.23,WSW,248,0.0,0.8,50,0.00,,,0.00,WUHU216HW,2013-03-30 14:35:00,
2013-03-30 10:40:00,47.1,28.8,30.23,SW,225,0.0,1.7,49,0.00,,,0.00,WUHU216HW,2013-03-30 14:40:00,
2013-03-30 10:45:00,47.6,28.9,30.22,SSW,203,0.0,1.7,48,0.00,,,0.00,WUHU216HW,2013-03-30 14:45:00,
2013-03-30 10:50:00,48.3,28.9,30.22,SSE,158,0.0,2.9,47,0.00,,,0.00,WUHU216HW,2013-03-30 14:50:00,
2013-03-30 10:55:00,48.9,28.9,30.22,SSW,203,0.0,2.9,46,0.00,,,0.00,WUHU216HW,2013-03-30 14:55:00,
2013-03-30 11:00:00,49.4,28.3,30.21,SW,225,0.0,2.4,43,0.00,,,0.00,WUHU216HW,2013-03-30 15:00:00,
2013-03-30 11:05:00,50.1,28.4,30.21,SSW,203,0.0,2.4,43,0.00,,,0.00,WUHU216HW,2013-03-30 15:05:00,
2013-03-30 11:10:00,50.1,27.3,30.21,WSW,248,0.0,4.0,41,0.00,,,0.00,WUHU216HW,2013-03-30 15:10:00,
2013-03-30 11:15:00,50.3,26.2,30.20,SW,225,0.0,4.0,39,0.00,,,0.00,WUHU216HW,2013-03-30 15:15:00,
2013-03-30 11:20:00,50.5,26.4,30.20,SSE,158,0.0,1.3,39,0.00,,,0.00,WUHU216HW,2013-03-30 15:20:00,
2013-03-30 11:25:00,50.9,26.0,30.20,SW,225,0.0,0.0,38,0.00,,,0.00,WUHU216HW,2013-03-30 15:25:00,
2013-03-30 11:30:00,51.4,25.8,30.20,South,180,1.5,1.5,37,0.00,,,0.00,WUHU216HW,2013-03-30 15:30:00,
2013-03-30 11:35:00,51.8,25.6,30.20,SE,135,0.0,1.5,36,0.00,,,0.00,WUHU216HW,2013-03-30 15:35:00,
2013-03-30 11:40:00,52.5,26.1,30.20,SE,135,0.0,0.0,36,0.00,,,0.00,WUHU216HW,2013-03-30 15:40:00,
2013-03-30 11:45:00,53.0,25.9,30.20,WNW,293,0.0,1.5,35,0.00,,,0.00,WUHU216HW,2013-03-30 15:45:00,
2013-03-30 11:50:00,53.2,25.5,30.21,South,180,0.8,1.5,34,0.00,,,0.00,WUHU216HW,2013-03-30 15:50:00,
2013-03-30 11:55:00,53.7,25.1,30.20,WNW,293,0.0,2.2,33,0.00,,,0.00,WUHU216HW,2013-03-30 15:55:00,
2013-03-30 12:00:00,53.6,24.3,30.20,NW,315,0.0,2.2,32,0.00,,,0.00,WUHU216HW,2013-03-30 16:00:00,
2013-03-30 12:05:00,53.9,24.6,30.20,SSW,203,0.0,1.1,32,0.00,,,0.00,WUHU216HW,2013-03-30 16:05:00,
2013-03-30 12:10:00,54.3,24.9,30.20,SSW,203,0.0,2.6,32,0.00,,,0.00,WUHU216HW,2013-03-30 16:10:00,
2013-03-30 12:15:00,54.3,23.5,30.20,SSW,203,2.6,2.6,30,0.00,,,0.00,WUHU216HW,2013-03-30 16:15:00,
2013-03-30 12:20:00,54.5,22.7,30.20,SSW,203,4.0,4.0,29,0.00,,,0.00,WUHU216HW,2013-03-30 16:20:00,
2013-03-30 12:25:00,54.8,22.1,30.20,West,270,1.1,4.0,28,0.00,,,0.00,WUHU216HW,2013-03-30 16:25:00,
2013-03-30 12:30:00,55.0,22.2,30.21,WSW,248,4.6,4.6,28,0.00,,,0.00,WUHU216HW,2013-03-30 16:30:00,
2013-03-30 12:35:00,55.0,21.3,30.21,West,270,0.0,4.6,27,0.00,,,0.00,WUHU216HW,2013-03-30 16:35:00,
2013-03-30 12:40:00,55.2,22.4,30.21,West,270,3.5,6.2,28,0.00,,,0.00,WUHU216HW,2013-03-30 16:40:00,
2013-03-30 12:45:00,55.4,19.7,30.20,SSE,158,0.0,6.2,26,0.00,,,0.00,WUHU216HW,2013-03-30 16:45:00,
2013-03-30 12:50:00,55.5,19.9,30.19,South,180,0.0,3.3,25,0.00,,,0.00,WUHU216HW,2013-03-30 16:50:00,
2013-03-30 12:55:00,55.9,22.1,30.18,NE,45,0.0,3.1,27,0.00,,,0.00,WUHU216HW,2013-03-30 16:55:00,
2013-03-30 13:00:00,56.4,22.4,30.18,ENE,68,0.0,2.6,27,0.00,,,0.00,WUHU216HW,2013-03-30 17:00:00,
2013-03-30 13:05:00,57.2,23.1,30.18,West,270,0.0,0.0,27,0.00,,,0.00,WUHU216HW,2013-03-30 17:05:00,
2013-03-30 13:10:00,57.5,22.5,30.17,NNW,338,0.0,0.0,26,0.00,,,0.00,WUHU216HW,2013-03-30 17:10:00,
2013-03-30 13:15:00,57.7,21.7,30.17,WNW,293,0.0,3.3,25,0.00,,,0.00,WUHU216HW,2013-03-30 17:15:00,
2013-03-30 13:20:00,57.9,19.9,30.16,NNE,23,0.0,4.6,23,0.00,,,0.00,WUHU216HW,2013-03-30 17:20:00,
2013-03-30 13:25:00,57.9,20.9,30.15,SSW,203,2.2,4.6,24,0.00,,,0.00,WUHU216HW,2013-03-30 17:25:00,
2013-03-30 13:30:00,57.9,20.9,30.15,WNW,293,0.0,4.2,24,0.00,,,0.00,WUHU216HW,2013-03-30 17:30:00,
2013-03-30 13:35:00,58.1,21.0,30.15,NW,315,2.6,4.2,24,0.00,,,0.00,WUHU216HW,2013-03-30 17:35:00,
2013-03-30 13:40:00,58.4,21.2,30.15,West,270,0.0,4.6,23,0.00,,,0.00,WUHU216HW,2013-03-30 17:40:00,
2013-03-30 13:45:00,58.4,19.4,30.15,South,180,6.0,6.0,22,0.00,,,0.00,WUHU216HW,2013-03-30 17:45:00,
2013-03-30 13:50:00,58.6,19.5,30.14,SE,135,3.3,6.0,22,0.00,,,0.00,WUHU216HW,2013-03-30 17:50:00,
2013-03-30 13:55:00,59.1,21.0,30.14,WSW,248,0.0,4.0,23,0.00,,,0.00,WUHU216HW,2013-03-30 17:55:00,
2013-03-30 14:00:00,59.7,17.3,30.14,West,270,0.0,3.1,19,0.00,,,0.00,WUHU216HW,2013-03-30 18:00:00,
2013-03-30 14:05:00,59.9,17.5,30.14,SSW,203,4.4,4.4,19,0.00,,,0.00,WUHU216HW,2013-03-30 18:05:00,
2013-03-30 14:10:00,59.9,17.5,30.14,South,180,3.5,4.4,19,0.00,,,0.00,WUHU216HW,2013-03-30 18:10:00,
2013-03-30 14:15:00,60.4,17.9,30.13,ESE,113,0.0,3.5,19,0.00,,,0.00,WUHU216HW,2013-03-30 18:15:00,
2013-03-30 14:20:00,61.1,18.5,30.13,ENE,68,0.0,2.4,19,0.00,,,0.00,WUHU216HW,2013-03-30 18:20:00,
2013-03-30 14:25:00,62.0,21.5,30.13,South,180,0.0,2.0,21,0.00,,,0.00,WUHU216HW,2013-03-30 18:25:00,
2013-03-30 14:30:00,62.9,19.9,30.13,South,180,0.0,0.0,19,0.00,,,0.00,WUHU216HW,2013-03-30 18:30:00,
2013-03-30 14:35:00,63.5,20.4,30.12,SE,135,0.0,0.0,19,0.00,,,0.00,WUHU216HW,2013-03-30 18:35:00,
2013-03-30 14:40:00,64.0,20.8,30.12,South,180,0.0,0.0,19,0.00,,,0.00,WUHU216HW,2013-03-30 18:40:00,
2013-03-30 14:45:00,64.9,21.6,30.12,SSE,158,0.0,0.0,19,0.00,,,0.00,WUHU216HW,2013-03-30 18:45:00,
2013-03-30 14:50:00,65.1,21.8,30.12,WNW,293,0.0,5.1,19,0.00,,,0.00,WUHU216HW,2013-03-30 18:50:00,
2013-03-30 14:55:00,64.5,21.3,30.11,SSW,203,0.0,5.1,19,0.00,,,0.00,WUHU216HW,2013-03-30 18:55:00,
2013-03-30 15:00:00,64.4,21.2,30.11,West,270,0.0,3.3,19,0.00,,,0.00,WUHU216HW,2013-03-30 19:00:00,
2013-03-30 15:05:00,64.2,21.0,30.11,SSE,158,4.2,4.2,19,0.00,,,0.00,WUHU216HW,2013-03-30 19:05:00,
2013-03-30 15:10:00,64.2,21.0,30.10,NNW,338,0.0,4.2,19,0.00,,,0.00,WUHU216HW,2013-03-30 19:10:00,
2013-03-30 15:15:00,64.9,21.6,30.10,SW,225,0.0,1.3,19,0.00,,,0.00,WUHU216HW,2013-03-30 19:15:00,
2013-03-30 15:21:00,65.1,21.8,30.10,SSW,203,3.8,3.8,19,0.00,,,0.00,WUHU216HW,2013-03-30 19:21:00,
2013-03-30 15:26:00,64.5,21.3,30.10,West,270,0.0,5.5,19,0.00,,,0.00,WUHU216HW,2013-03-30 19:26:00,
2013-03-30 15:31:00,64.4,21.2,30.10,NNW,338,0.0,5.5,19,0.00,,,0.00,WUHU216HW,2013-03-30 19:31:00,
2013-03-30 15:36:00,65.3,21.9,30.09,South,180,1.7,3.3,19,0.00,,,0.00,WUHU216HW,2013-03-30 19:36:00,
2013-03-30 15:41:00,66.0,22.5,30.09,SSE,158,4.4,4.4,19,0.00,,,0.00,WUHU216HW,2013-03-30 19:41:00,
2013-03-30 15:46:00,66.5,22.9,30.09,East,90,2.4,4.4,19,0.00,,,0.00,WUHU216HW,2013-03-30 19:46:00,
2013-03-30 15:51:00,67.8,24.0,30.09,West,270,0.0,4.0,19,0.00,,,0.00,WUHU216HW,2013-03-30 19:51:00,
2013-03-30 15:56:00,68.1,24.2,30.09,SSE,158,2.9,4.0,19,0.00,,,0.00,WUHU216HW,2013-03-30 19:56:00,
2013-03-30 16:01:00,67.4,23.6,30.09,West,270,0.0,3.1,19,0.00,,,0.00,WUHU216HW,2013-03-30 20:01:00,
2013-03-30 16:06:00,67.1,23.4,30.08,North,0,0.0,2.9,19,0.00,,,0.00,WUHU216HW,2013-03-30 20:06:00,
2013-03-30 16:11:00,67.6,23.8,30.08,SW,225,0.0,2.6,19,0.00,,,0.00,WUHU216HW,2013-03-30 20:11:00,
2013-03-30 16:16:00,67.1,23.4,30.08,West,270,0.0,3.5,19,0.00,,,0.00,WUHU216HW,2013-03-30 20:16:00,
2013-03-30 16:21:00,66.3,22.7,30.07,WSW,248,2.0,3.5,19,0.00,,,0.00,WUHU216HW,2013-03-30 20:21:00,
2013-03-30 16:26:00,65.8,22.3,30.08,WSW,248,1.5,2.2,19,0.00,,,0.00,WUHU216HW,2013-03-30 20:26:00,
2013-03-30 16:31:00,65.8,22.3,30.08,West,270,2.4,4.0,19,0.00,,,0.00,WUHU216HW,2013-03-30 20:31:00,
2013-03-30 16:36:00,65.4,22.0,30.07,SW,225,0.0,4.0,19,0.00,,,0.00,WUHU216HW,2013-03-30 20:36:00,
2013-03-30 16:41:00,65.1,21.8,30.07,SW,225,0.8,2.4,19,0.00,,,0.00,WUHU216HW,2013-03-30 20:41:00,
2013-03-30 16:46:00,64.7,21.4,30.07,West,270,0.0,2.4,19,0.00,,,0.00,WUHU216HW,2013-03-30 20:46:00,
2013-03-30 16:51:00,64.9,21.6,30.07,SE,135,0.0,2.2,19,0.00,,,0.00,WUHU216HW,2013-03-30 20:51:00,
2013-03-30 16:56:00,64.7,21.4,30.07,SW,225,0.0,2.0,19,0.00,,,0.00,WUHU216HW,2013-03-30 20:56:00,
2013-03-30 17:01:00,64.2,21.0,30.07,WNW,293,2.2,2.4,19,0.00,,,0.00,WUHU216HW,2013-03-30 21:01:00,
2013-03-30 17:06:00,64.0,20.8,30.07,NNW,338,0.0,2.6,19,0.00,,,0.00,WUHU216HW,2013-03-30 21:06:00,
2013-03-30 17:11:00,64.0,20.8,30.06,South,180,0.0,2.6,19,0.00,,,0.00,WUHU216HW,2013-03-30 21:11:00,
2013-03-30 17:16:00,63.8,20.7,30.06,WNW,293,2.4,2.4,19,0.00,,,0.00,WUHU216HW,2013-03-30 21:16:00,
2013-03-30 17:21:00,63.6,20.5,30.06,NW,315,0.0,2.4,19,0.00,,,0.00,WUHU216HW,2013-03-30 21:21:00,
2013-03-30 17:26:00,63.3,20.3,30.06,South,180,0.0,0.0,19,0.00,,,0.00,WUHU216HW,2013-03-30 21:26:00,
2013-03-30 17:31:00,62.9,19.9,30.05,SW,225,0.0,4.0,19,0.00,,,0.00,WUHU216HW,2013-03-30 21:31:00,
2013-03-30 17:36:00,62.2,19.4,30.05,SSW,203,0.0,4.0,19,0.00,,,0.00,WUHU216HW,2013-03-30 21:36:00,
2013-03-30 17:41:00,62.0,19.2,30.05,SW,225,0.0,2.4,19,0.00,,,0.00,WUHU216HW,2013-03-30 21:41:00,
2013-03-30 17:46:00,61.3,18.6,30.05,SW,225,1.3,2.9,19,0.00,,,0.00,WUHU216HW,2013-03-30 21:46:00,
2013-03-30 17:51:00,60.9,18.3,30.05,WSW,248,0.0,2.9,19,0.00,,,0.00,WUHU216HW,2013-03-30 21:51:00,
2013-03-30 17:56:00,60.6,18.0,30.05,WSW,248,0.0,0.0,19,0.00,,,0.00,WUHU216HW,2013-03-30 21:56:00,
2013-03-30 18:01:00,60.6,18.0,30.05,South,180,0.0,1.3,19,0.00,,,0.00,WUHU216HW,2013-03-30 22:01:00,
2013-03-30 18:06:00,60.4,17.9,30.05,SE,135,0.0,1.3,19,0.00,,,0.00,WUHU216HW,2013-03-30 22:06:00,
2013-03-30 18:11:00,60.2,17.7,30.05,SSE,158,0.0,3.5,19,0.00,,,0.00,WUHU216HW,2013-03-30 22:11:00,
2013-03-30 18:16:00,60.0,17.5,30.04,South,180,0.0,3.5,19,0.00,,,0.00,WUHU216HW,2013-03-30 22:16:00,
2013-03-30 18:21:00,59.9,17.5,30.04,SSW,203,0.0,0.0,19,0.00,,,0.00,WUHU216HW,2013-03-30 22:21:00,
2013-03-30 18:25:00,59.7,17.3,30.04,South,180,0.0,0.0,19,0.00,,,0.00,WUHU216HW,2013-03-30 22:25:00,
2013-03-30 18:30:00,59.7,17.3,30.04,SSE,158,0.0,0.0,19,0.00,,,0.00,WUHU216HW,2013-03-30 22:30:00,
2013-03-30 18:35:00,59.7,17.3,30.04,SE,135,0.0,0.0,19,0.00,,,0.00,WUHU216HW,2013-03-30 22:35:00,
2013-03-30 18:40:00,59.5,17.1,30.05,West,270,0.0,0.0,19,0.00,,,0.00,WUHU216HW,2013-03-30 22:40:00,
2013-03-30 18:45:00,59.3,17.0,30.04,WSW,248,0.0,0.0,19,0.00,,,0.00,WUHU216HW,2013-03-30 22:45:00,
2013-03-30 18:50:00,59.3,17.0,30.04,SW,225,0.0,0.0,19,0.00,,,0.00,WUHU216HW,2013-03-30 22:50:00,
2013-03-30 18:55:00,59.1,16.8,30.04,SSW,203,0.8,1.1,19,0.00,,,0.00,WUHU216HW,2013-03-30 22:55:00,
2013-03-30 19:00:00,58.8,16.6,30.04,SSE,158,0.0,3.1,19,0.00,,,0.00,WUHU216HW,2013-03-30 23:00:00,
2013-03-30 19:05:00,58.4,16.2,30.04,South,180,0.0,3.1,19,0.00,,,0.00,WUHU216HW,2013-03-30 23:05:00,
2013-03-30 19:10:00,58.2,16.1,30.04,SSW,203,0.0,0.8,19,0.00,,,0.00,WUHU216HW,2013-03-30 23:10:00,
2013-03-30 19:15:00,58.1,16.0,30.04,South,180,0.4,0.8,19,0.00,,,0.00,WUHU216HW,2013-03-30 23:15:00,
2013-03-30 19:20:00,57.9,15.8,30.04,South,180,0.0,0.4,19,0.00,,,0.00,WUHU216HW,2013-03-30 23:20:00,
2013-03-30 19:25:00,57.5,15.5,30.04,SSW,203,0.0,1.7,19,0.00,,,0.00,WUHU216HW,2013-03-30 23:25:00,
2013-03-30 19:30:00,57.0,15.1,30.04,SSW,203,0.0,1.7,19,0.00,,,0.00,WUHU216HW,2013-03-30 23:30:00,
2013-03-30 19:35:00,56.8,14.9,30.04,SSE,158,0.0,0.0,19,0.00,,,0.00,WUHU216HW,2013-03-30 23:35:00,
2013-03-30 19:40:00,56.3,14.5,30.04,South,180,0.0,0.0,19,0.00,,,0.00,WUHU216HW,2013-03-30 23:40:00,
2013-03-30 19:45:00,56.1,14.3,30.03,SSE,158,0.0,0.0,19,0.00,,,0.00,WUHU216HW,2013-03-30 23:45:00,
2013-03-30 19:50:00,55.9,15.3,30.03,SSE,158,0.0,0.0,20,0.00,,,0.00,WUHU216HW,2013-03-30 23:50:00,
2013-03-30 19:55:00,55.5,15.2,30.03,SSE,158,0.0,0.0,20,0.00,,,0.00,WUHU216HW,2013-03-30 23:55:00,
2013-03-30 20:00:00,55.4,15.0,30.03,SSE,158,0.0,0.0,20,0.00,,,0.00,WUHU216HW,2013-03-31 00:00:00,
2013-03-30 20:05:00,55.0,14.7,30.03,SSE,158,0.0,0.0,20,0.00,,,0.00,WUHU216HW,2013-03-31 00:05:00,
2013-03-30 20:10:00,54.8,14.5,30.03,SSE,158,0.0,0.0,20,0.00,,,0.00,WUHU216HW,2013-03-31 00:10:00,
2013-03-30 20:15:00,54.5,14.2,30.03,SSE,158,0.0,0.0,20,0.00,,,0.00,WUHU216HW,2013-03-31 00:15:00,
2013-03-30 20:20:00,54.3,14.1,30.03,SSE,158,0.0,0.0,20,0.00,,,0.00,WUHU216HW,2013-03-31 00:20:00,
2013-03-30 20:25:00,54.3,15.0,30.03,SSE,158,0.0,0.0,21,0.00,,,0.00,WUHU216HW,2013-03-31 00:25:00,
2013-03-30 20:30:00,54.1,14.8,30.03,SSE,158,0.0,0.0,21,0.00,,,0.00,WUHU216HW,2013-03-31 00:30:00,
2013-03-30 20:35:00,53.9,14.7,30.03,SSE,158,0.0,0.0,21,0.00,,,0.00,WUHU216HW,2013-03-31 00:35:00,
2013-03-30 20:40:00,53.7,14.5,30.03,SSE,158,0.0,0.0,21,0.00,,,0.00,WUHU216HW,2013-03-31 00:40:00,
2013-03-30 20:45:00,53.6,14.5,30.03,SSE,158,0.0,0.0,20,0.00,,,0.00,WUHU216HW,2013-03-31 00:45:00,
2013-03-30 20:50:00,53.4,14.2,30.03,SSE,158,0.0,0.0,21,0.00,,,0.00,WUHU216HW,2013-03-31 00:50:00,
2013-03-30 20:55:00,53.2,14.1,30.03,SE,135,0.0,0.0,21,0.00,,,0.00,WUHU216HW,2013-03-31 00:55:00,
2013-03-30 21:00:00,53.0,13.9,30.03,SE,135,0.0,0.0,21,0.00,,,0.00,WUHU216HW,2013-03-31 01:00:00,
2013-03-30 21:05:00,53.0,13.9,30.03,ESE,113,0.0,0.0,21,0.00,,,0.00,WUHU216HW,2013-03-31 01:05:00,
2013-03-30 21:10:00,53.0,14.9,30.02,SE,135,0.0,0.0,22,0.00,,,0.00,WUHU216HW,2013-03-31 01:10:00,
2013-03-30 21:15:00,52.7,14.6,30.02,North,0,0.0,0.0,22,0.00,,,0.00,WUHU216HW,2013-03-31 01:15:00,
2013-03-30 21:20:00,52.5,14.4,30.02,SE,135,0.0,0.0,22,0.00,,,0.00,WUHU216HW,2013-03-31 01:20:00,
2013-03-30 21:25:00,52.3,14.3,30.02,SE,135,0.0,0.0,22,0.00,,,0.00,WUHU216HW,2013-03-31 01:25:00,
2013-03-30 21:30:00,52.1,14.3,30.02,SE,135,0.0,0.0,22,0.00,,,0.00,WUHU216HW,2013-03-31 01:30:00,
2013-03-30 21:35:00,52.1,14.0,30.02,SE,135,0.0,0.0,22,0.00,,,0.00,WUHU216HW,2013-03-31 01:35:00,
2013-03-30 21:40:00,51.9,14.0,30.02,SE,135,0.0,0.0,22,0.00,,,0.00,WUHU216HW,2013-03-31 01:40:00,
2013-03-30 21:45:00,51.8,14.8,30.02,SE,135,0.0,0.0,23,0.00,,,0.00,WUHU216HW,2013-03-31 01:45:00,
2013-03-30 21:50:00,51.4,14.5,30.02,SE,135,0.0,0.0,23,0.00,,,0.00,WUHU216HW,2013-03-31 01:50:00,
2013-03-30 21:55:00,51.2,15.2,30.02,SE,135,0.0,0.0,24,0.00,,,0.00,WUHU216HW,2013-03-31 01:55:00,
2013-03-30 22:00:00,50.9,12.2,30.01,SE,135,0.0,0.0,21,0.00,,,0.00,WUHU216HW,2013-03-31 02:00:00,
2013-03-30 22:05:00,50.9,12.2,30.01,SE,135,0.0,0.0,21,0.00,,,0.00,WUHU216HW,2013-03-31 02:05:00,
2013-03-30 22:10:00,50.7,14.8,30.01,SE,135,0.0,0.0,24,0.00,,,0.00,WUHU216HW,2013-03-31 02:10:00,
2013-03-30 22:15:00,50.3,14.5,30.00,SE,135,0.0,0.0,24,0.00,,,0.00,WUHU216HW,2013-03-31 02:15:00,
2013-03-30 22:20:00,50.1,14.3,30.00,SE,135,0.0,0.0,24,0.00,,,0.00,WUHU216HW,2013-03-31 02:20:00,
2013-03-30 22:25:00,50.0,14.2,30.00,SE,135,0.0,0.0,24,0.00,,,0.00,WUHU216HW,2013-03-31 02:25:00,
2013-03-30 22:30:00,49.6,13.0,30.00,SE,135,0.0,0.0,23,0.00,,,0.00,WUHU216HW,2013-03-31 02:30:00,
2013-03-30 22:35:00,49.4,13.7,30.00,SE,135,0.0,0.0,24,0.00,,,0.00,WUHU216HW,2013-03-31 02:35:00,
2013-03-30 22:40:00,49.1,13.4,29.99,ESE,113,0.0,0.0,24,0.00,,,0.00,WUHU216HW,2013-03-31 02:40:00,
2013-03-30 22:45:00,49.1,14.3,29.99,East,90,0.0,0.0,25,0.00,,,0.00,WUHU216HW,2013-03-31 02:45:00,
2013-03-30 22:50:00,48.9,8.4,29.99,East,90,0.0,0.0,19,0.00,,,0.00,WUHU216HW,2013-03-31 02:50:00,
2013-03-30 22:55:00,48.7,8.2,29.99,East,90,0.0,0.0,19,0.00,,,0.00,WUHU216HW,2013-03-31 02:55:00,
2013-03-30 23:00:00,48.5,8.0,29.99,East,90,0.0,0.0,19,0.00,,,0.00,WUHU216HW,2013-03-31 03:00:00,
2013-03-30 23:06:00,48.3,7.9,29.99,East,90,0.0,0.0,19,0.00,,,0.00,WUHU216HW,2013-03-31 03:06:00,
2013-03-30 23:10:00,48.3,7.9,29.98,ESE,113,0.0,0.0,19,0.00,,,0.00,WUHU216HW,2013-03-31 03:10:00,
2013-03-30 23:16:00,48.2,7.8,29.98,ESE,113,0.0,0.0,19,0.00,,,0.00,WUHU216HW,2013-03-31 03:16:00,
2013-03-30 23:21:00,48.0,7.6,29.98,East,90,0.0,0.0,19,0.00,,,0.00,WUHU216HW,2013-03-31 03:21:00,
2013-03-30 23:26:00,47.8,7.5,29.98,East,90,0.0,0.0,19,0.00,,,0.00,WUHU216HW,2013-03-31 03:26:00,
2013-03-30 23:31:00,47.8,7.5,29.98,ESE,113,0.0,0.0,19,0.00,,,0.00,WUHU216HW,2013-03-31 03:31:00,
2013-03-30 23:36:00,47.8,7.5,29.98,ESE,113,0.0,0.0,19,0.00,,,0.00,WUHU216HW,2013-03-31 03:36:00,
2013-03-30 23:41:00,47.6,7.3,29.98,ESE,113,0.0,0.0,19,0.00,,,0.00,WUHU216HW,2013-03-31 03:41:00,
2013-03-30 23:46:00,47.6,7.3,29.97,ESE,113,0.0,0.0,19,0.00,,,0.00,WUHU216HW,2013-03-31 03:46:00,
2013-03-30 23:51:00,47.6,7.3,29.98,ESE,113,0.0,0.0,19,0.00,,,0.00,WUHU216HW,2013-03-31 03:51:00,
2013-03-30 23:56:00,47.6,7.3,29.98,ESE,113,0.0,0.0,19,0.00,,,0.00,WUHU216HW,2013-03-31 03:56:00,